Regional Weather Roundup
Issued by NWS

Home | Current Version | Previous Version | Text Only | Print | Product List | Glossary Off
Versions: 1 2 3 4 5 6 7 8 9 10 11 12 13 14 15 16 17 18 19 20 21 22 23 24 25 26 27 28 29 30 31 32 33 34 35 36 37 38 39 40 41 42 43 44 45 46 47 48 49 50

504
ASUS43 KDTX 141510
RWRMI
MICHIGAN HOURLY REGIONAL WEATHER ROUNDUP
NATIONAL WEATHER SERVICE DETROIT/PONTIAC MI
1000 AM EST SUN FEB 14 2016

NOTE: "FAIR" INDICATES FEW OR NO CLOUDS BELOW 12,000 FEET WITH NO
SIGNIFICANT WEATHER AND/OR OBSTRUCTION TO VISIBILITY.

MIZ047>049-052>055-059>063-066>070-074>076-081>083-141600-
SOUTHEAST LOWER MICHIGAN

CITY           SKY/WX    TMP DP  RH WIND       PRES   REMARKS
ADRIAN         SUNNY     11   3  70 S8        30.45F WCI  -1
ALMA           SUNNY     14   5  68 S5        30.43F WCI   6
ANN ARBOR      SUNNY     10   3  73 S7        30.44F WCI  -1
BAD AXE        SUNNY      1  -3  84 CALM      30.43F
CARO           CLOUDY     0  -6  78 CALM      30.44S
DETROIT CITY   SUNNY     12   5  73 VRB6      30.47S WCI   3
DETROIT        MOSUNNY   11   8  88 CALM      30.48S
FLINT          SUNNY      6   1  80 S3        30.44F
GROSSE ILE     MOSUNNY   14   1  57 CALM      30.47S
HILLSDALE      CLOUDY    11   1  63 SE9       30.38F WCI  -2
HOWELL         SUNNY      8   5  88 SE6       30.43S WCI  -3

CITY           SKY/WX    TMP DP  RH WIND       PRES   REMARKS
JACKSON        SUNNY     10   0  63 SE8       30.41F WCI  -2
LAMBERTVILLE   SUNNY     14   6  70 SE9       30.47S WCI   2
LANSING        SUNNY     11   1  64 SE8       30.43F WCI  -1
LAPEER         FAIR       3  -1  85 CALM      30.44S
MASON          SUNNY      9   3  74 SE8       30.42F WCI  -3
MONROE         LGT SNOW  13   8  81 CALM      30.46F
MT. CLEMENS    MOSUNNY   10   3  73 CALM      30.45F
PONTIAC        MOSUNNY    7   3  84 CALM      30.42S
PORT HOPE        N/A     11   0  61 SW7       30.42S WCI   0
PORT HURON     SUNNY      7   5  92 CALM      30.47S
TRI CITIES     SUNNY     10   2  69 S5        30.45S WCI   2
MIDLAND        PTSUNNY   12   4  68 S3        30.44S
TROY           SUNNY     13   3  64 SE3       30.47S
SAGINAW HB     CLOUDY     5   1  85 CALM      30.45F
$$
MIZ043>046-050>051-056>058-064>065-071>073-077>080-141600-
SOUTHWEST LOWER MICHIGAN

CITY           SKY/WX    TMP DP  RH WIND       PRES   REMARKS
BATTLE CREEK   CLOUDY    10  -1  61 S12       30.40F WCI  -5
BENTON HARBOR  MOSUNNY   12   3  67 SE13      30.38F WCI  -3
BIG RAPIDS     CLOUDY     2  -1  86 CALM      30.37F
COLDWATER      CLOUDY    11   1  64 SE8       30.40F WCI  -1
FREMONT        FAIR      12  -3  51 SE6       30.38F WCI   2
HOLLAND        CLOUDY    10  -2  58 SE12      30.40F WCI  -5
GRAND RAPIDS   MOSUNNY   13   2  61 S13       30.40F WCI  -2
IONIA          FAIR      13   1  59 SE14      30.40F WCI  -3
KALAMAZOO      CLOUDY     9  -1  64 SE6       30.40F WCI  -1
LUDINGTON      CLOUDY    13   1  58 SE9       30.36F WCI   1
MARSHALL       CLOUDY    11   1  63 SE7       30.41F WCI   1
MOUNT PLEASANT SUNNY     15   6  68 S8        30.41F WCI   4
MUSKEGON       CLOUDY    14   0  53 SE18      30.39F WCI  -3
SOUTH HAVEN    MOSUNNY   12   2  65 SE9       30.39F WCI   0
$$
MIZ016>042-141600-
NORTHERN LOWER MICHIGAN

CITY           SKY/WX    TMP DP  RH WIND       PRES   REMARKS
ALPENA         PTSUNNY    3  -1  83 S5        30.41F WCI  -6
BEAVER ISLAND  LGT SNOW  15  12  88 E7        30.32F WCI   6
BELLAIRE       CLOUDY    14   5  68 S10       30.37F WCI   1
CADILLAC       CLOUDY     9   0  67 S6        30.32F WCI   0
CHARLEVOIX     CLOUDY    13   7  74 S8        30.37F WCI   2
FRANKFORT      CLOUDY    15   4  61 SE7       30.35F WCI   5
GAYLORD        CLOUDY     8   3  80 S6        30.31F WCI  -2
GRAYLING       CLOUDY    10   0  61 S7        30.35F WCI   0
HARBOR SPRINGS CLOUDY     7   2  82 NE5       30.34F WCI  -2
HOUGHTON LAKE  MOSUNNY    9   1  70 S5        30.36F WCI   1
MANISTEE       CLOUDY    12   0  57 SE9G17    30.36F WCI   0
OSCODA         SUNNY      2  -5  72 CALM      30.42F
PELLSTON       CLOUDY     4  -1  80 SE5       30.36F WCI  -5
ROGERS CITY    PTSUNNY    7   1  78 S6        30.40F WCI  -3
TRAVERSE CITY  CLOUDY    14   3  61 S6        30.36F WCI   5
$$
MIZ007>008-015-141600-
EASTERN UPPER MICHIGAN

CITY           SKY/WX    TMP DP  RH WIND       PRES   REMARKS
KINROSS        SUNNY      3  -2  78 CALM      30.36F
MACKINAC ISLAN PTSUNNY   11   5  77 S9        30.35F WCI  -2
NEWBERRY       CLOUDY    -2  -5  87 SE3       30.32F
S. S. MARIE    PTSUNNY   -2 -10  69 E7        30.37F WCI -15
MUNISING         N/A      8  -1  66 S9        30.30F WCI  -5
$$
MIZ004>006-011>014-085-141600-
CENTRAL UPPER MICHIGAN

CITY           SKY/WX    TMP DP  RH WIND       PRES   REMARKS
MANISTIQUE     SUNNY      3  -3  76 CALM      30.32F
ESCANABA       CLOUDY     0  -9  65 CALM      30.32F
MENOMINEE      CLOUDY     0  -6  78 CALM      30.30F
$$
MIZ001>003-009>011-084-141600-
WESTERN UPPER MICHIGAN

CITY           SKY/WX    TMP DP  RH WIND       PRES   REMARKS
IRON MOUNTAIN  CLOUDY   -10 -15  78 CALM      30.22F
HOUGHTON       CLOUDY     1  -5  75 S7        30.18F WCI -12
COPPER HARBOR    N/A     10   4  76 SW8       30.23F WCI  -2
IRONWOOD       CLOUDY     3 -15  43 E9        30.09F WCI -11
$$

ABBREVIATIONS USED IN REMARKS
   TC - TEMPERATURE IN CELSIUS
  WCI - WIND CHILL INDEX
   HX - HEAT INDEX
  VSB - VISIBILITY





USA.gov is the U.S. government's official web portal to all federal, state and local government web resources and services.